Theta_e
329 333 331 331 332 332 331 331 332 334 334 333 333 333 331 328 324 322 322 322 333 333 327 324 323 322 320 322 323 323 323 322 323 333 333 331 331 329 331 332 335 334 333
325 329 331 331 332 332 332 333 333 333 333 332 332 331 330 327 324 324 323 333 333 328 328 326 326 326 325 321 322 323 322 321 323 327 333 333 332 332 333 334 334 334 333
325 324 329 331 330 331 331 330 330 331 331 331 330 330 328 326 325 325 324 332 332 330 327 325 323 322 320 323 323 321 322 323 324 329 330 332 333 330 329 331 331 331 330
323 324 326 328 330 330 329 329 329 331 330 329 327 327 325 324 323 324 329 331 331 328 324 323 319 320 321 321 320 320 320 321 323 325 328 329 333 332 333 325 327 327 326
321 321 324 327 328 329 329 329 329 329 328 327 326 326 325 323 322 322 328 331 329 325 322 321 319 318 319 319 317 317 319 321 322 323 324 328 329 332 332 331 323 322 322
319 320 321 326 328 328 329 329 328 327 327 327 326 325 324 324 323 319 324 323 320 320 319 319 316 315 314 313 313 313 313 313 314 315 316 320 324 324 317 327 334 325 323
317 319 319 322 325 327 328 329 329 328 327 326 326 324 324 324 320 315 318 317 316 314 314 314 314 313 312 311 309 308 307 306 306 307 308 311 315 316 314 313 320 321 320
316 317 319 319 320 323 326 327 327 328 328 328 328 328 326 324 322 315 312 313 313 312 312 312 311 309 306 305 304 304 304 304 304 304 304 304 305 305 304 306 310 311 313
316 316 317 319 319 319 324 325 326 328 327 327 327 331 330 331 327 317 312 311 310 310 309 308 307 305 304 303 304 305 306 306 306 307 307 307 307 306 306 305 305 306 308
316 316 316 318 319 319 318 319 322 322 324 324 325 329 331 331 331 324 318 311 309 308 307 306 305 303 303 304 306 306 306 306 307 307 307 307 307 307 306 305 305 305 305
316 317 316 316 317 319 319 318 318 318 318 321 328 329 329 331 330 325 321 314 309 307 305 305 304 303 304 306 306 306 306 306 306 306 306 306 306 306 306 305 305 305 304
317 317 317 316 316 317 319 319 318 317 317 317 319 327 327 327 329 327 324 317 309 306 305 305 304 304 304 305 305 305 306 306 306 306 306 306 306 306 305 305 305 305 304
317 316 317 319 318 316 317 318 319 318 318 318 316 320 329 329 326 325 323 316 310 307 305 306 305 304 305 306 306 306 306 306 306 306 306 306 305 305 305 305 305 305 304
316 316 316 317 318 319 317 318 318 319 319 319 318 318 326 331 328 319 319 317 311 308 305 306 304 304 305 305 305 306 306 306 307 307 307 307 306 306 305 305 304 304 304
316 315 315 315 317 318 320 319 320 320 320 321 321 321 319 326 327 321 317 316 313 309 306 306 305 304 304 305 305 305 306 306 307 307 307 307 306 305 304 304 304 303 303
316 316 315 315 315 316 318 320 320 322 324 324 324 324 324 321 321 322 317 317 316 311 306 305 305 304 304 304 305 305 305 306 306 306 306 306 305 305 304 304 304 303 303
314 315 315 315 315 315 317 319 321 321 325 326 325 325 324 324 322 322 322 319 317 313 308 304 304 304 303 304 304 304 305 305 305 305 305 306 306 305 304 303 303 302 307
313 314 314 315 315 315 316 318 319 320 321 324 326 326 329 329 326 326 325 324 322 317 310 306 304 304 304 303 303 303 304 304 305 305 305 305 305 305 304 302 302 304 309
312 312 312 312 313 315 317 319 321 321 321 323 324 325 328 326 327 328 327 325 324 320 313 308 306 305 304 303 302 302 303 303 304 304 304 304 304 304 303 302 301 302 304
308 309 310 311 312 313 313 314 321 323 323 323 324 325 325 325 325 325 325 324 322 319 316 311 307 306 304 302 301 301 301 302 303 303 303 303 303 304 303 302 300 300 301
307 308 308 309 310 311 311 311 312 317 321 322 323 322 322 322 322 322 321 322 321 319 317 314 310 306 304 301 300 300 300 301 302 302 303 303 303 303 303 302 300 299 299
305 306 306 306 307 308 309 311 312 314 316 319 320 319 319 319 318 318 318 318 318 318 316 314 311 307 305 301 300 299 299 300 301 301 302 302 302 302 302 302 300 299 298
305 305 305 305 306 306 307 309 310 311 314 315 316 316 315 316 316 315 315 315 314 314 314 314 312 309 305 302 300 299 299 300 301 301 301 301 301 302 301 301 301 300 299
302 304 305 305 305 305 304 305 305 306 306 307 307 307 307 309 311 312 312 312 312 311 310 310 311 308 305 302 300 299 299 300 301 301 301 301 301 301 301 301 301 301 301
303 303 304 304 305 305 305 305 304 303 303 304 305 305 304 304 303 304 305 308 309 308 307 306 306 307 305 302 300 299 299 298 300 301 301 302 301 302 301 300 300 299 300
302 302 302 303 303 303 303 303 303 304 303 302 302 301 301 301 301 301 301 301 303 306 306 305 304 304 304 303 302 300 298 298 298 299 300 300 301 302 301 301 300 299 299
Wind_Speed
8 11 20 20 18 18 17 16 14 12 9 6 5 4 4 4 4 3 3 2 4 3 2 3 3 5 4 4 5 5 6 7 9 10 7 7 6 7 7 7 8 8 8
5 11 22 21 19 18 17 15 13 12 10 9 8 6 5 5 4 3 2 3 2 2 1 2 3 4 4 4 5 5 5 6 8 7 8 6 4 4 4 4 4 4 5
6 10 19 21 22 20 18 15 13 12 11 10 10 9 8 6 5 4 4 5 6 5 2 1 0 1 1 3 4 5 5 6 7 6 7 4 4 2 3 3 2 2 2
6 9 18 20 21 21 19 17 15 13 12 11 10 9 9 8 7 6 6 9 9 6 4 3 1 1 1 2 2 3 5 6 7 7 4 4 3 2 1 5 3 2 1
7 9 17 20 20 21 19 18 16 14 13 12 11 10 9 10 9 9 10 11 10 8 6 6 5 4 4 4 3 4 5 6 7 7 8 8 5 4 4 1 4 4 3
7 9 12 19 21 22 21 19 17 16 14 13 13 12 11 11 12 11 13 13 10 10 8 8 6 6 6 5 5 6 7 8 7 10 10 11 10 10 4 7 3 2 4
7 9 12 15 21 22 21 21 19 18 16 15 15 13 13 14 10 9 11 11 11 10 9 9 7 7 6 6 6 6 7 7 8 10 10 11 11 10 9 7 7 6 5
7 9 12 15 17 20 22 23 22 20 19 17 16 16 15 17 12 9 10 11 11 10 10 9 8 6 6 6 6 6 6 5 7 6 7 8 9 8 8 7 8 8 8
8 10 12 15 17 18 22 23 23 23 22 20 18 17 18 18 15 13 9 11 11 10 9 8 8 6 7 8 7 6 5 5 7 6 5 6 7 7 7 7 8 8 9
12 13 13 15 17 19 22 23 23 23 23 23 21 20 22 21 19 17 12 13 12 11 10 9 8 8 8 7 6 6 6 6 7 6 6 7 7 7 7 7 7 8 9
15 17 17 17 17 20 22 23 24 24 24 24 23 25 24 24 23 21 16 15 14 12 11 9 9 10 9 9 8 8 8 7 8 7 7 8 8 9 8 8 8 8 8
18 18 19 20 19 20 22 24 25 25 26 26 26 27 27 27 26 23 20 19 18 16 14 12 12 12 11 11 10 8 8 7 9 7 7 8 8 9 9 9 9 9 8
21 18 18 19 20 22 23 23 26 27 28 29 29 28 28 29 29 28 24 22 21 20 18 16 15 15 14 13 11 10 10 9 9 8 8 9 9 10 11 11 11 9 9
20 20 18 19 20 21 24 25 25 26 27 29 30 29 31 31 29 29 27 25 24 22 20 19 17 18 17 15 13 12 11 10 10 9 9 10 11 12 12 12 11 10 9
18 18 20 20 22 21 22 25 27 27 26 27 28 30 31 31 32 32 27 27 26 24 23 22 20 21 19 17 15 14 13 12 12 10 10 11 11 12 12 13 11 11 8
19 17 17 18 19 22 22 22 25 28 28 28 27 27 31 34 34 34 29 29 28 27 25 24 23 22 21 20 19 18 16 14 13 12 11 11 11 12 12 12 12 11 7
3 12 14 15 15 19 22 22 22 25 28 29 29 27 26 28 31 32 33 30 28 27 27 27 26 26 25 24 23 21 19 17 16 14 13 12 12 12 12 13 12 10 8
6 7 10 13 11 12 18 22 22 22 24 27 27 26 25 26 26 29 30 30 29 30 30 29 28 28 28 27 25 23 22 20 19 17 16 14 13 12 12 12 12 13 15
12 11 9 7 11 11 13 16 19 20 21 22 24 25 26 26 27 30 30 30 31 31 32 31 30 29 30 29 28 27 25 24 22 20 19 17 15 13 13 14 14 14 13
8 5 5 9 9 13 12 12 15 18 16 17 20 22 24 25 27 30 31 31 31 32 34 34 33 31 31 30 29 28 28 27 26 25 23 21 18 16 15 16 16 17 17
15 12 8 1 4 8 10 10 12 15 16 14 15 16 19 22 24 26 29 29 30 33 34 34 34 34 33 32 31 30 30 30 30 29 28 24 22 20 18 18 18 18 19
24 22 18 13 7 3 1 1 3 6 11 14 13 13 16 19 22 23 25 28 29 31 33 34 35 37 36 36 36 33 25 32 33 33 30 28 26 24 22 20 20 20 21
28 29 26 22 16 11 6 2 4 5 7 9 9 12 12 16 20 22 24 25 28 30 32 33 35 37 39 40 41 32 15 19 23 33 35 32 30 28 25 24 22 22 22
27 25 25 25 24 22 17 12 10 7 4 2 4 8 10 14 17 17 21 23 25 29 31 31 32 36 38 41 42 43 39 22 15 15 26 33 33 32 29 27 25 24 24
21 22 22 21 20 21 20 18 15 12 7 3 6 8 9 10 9 12 17 21 23 26 28 29 32 34 38 41 45 46 44 43 30 28 25 26 30 29 30 29 27 26 26
18 19 19 19 19 18 17 16 15 13 11 7 6 6 7 8 9 10 9 13 19 23 26 28 30 32 35 38 42 46 48 46 44 40 36 35 32 32 31 30 30 29 29
Wind_Direction
185 187 190 187 188 184 182 178 175 175 180 186 185 176 167 148 124 108 109 94 90 106 74 58 63 63 88 126 123 112 107 102 99 110 101 89 98 104 96 80 92 93 87
192 186 193 194 194 193 190 188 188 191 193 192 194 201 197 183 170 161 145 112 181 209 149 65 59 84 93 108 120 121 115 109 112 114 107 94 111 125 118 106 109 97 84
206 193 197 199 200 202 203 208 210 209 208 205 201 200 200 198 196 194 190 182 225 218 251 183 268 86 110 132 131 133 131 125 131 132 137 134 110 137 170 168 154 134 96
222 217 201 203 205 210 214 215 219 218 214 210 208 210 216 218 220 208 193 205 220 229 241 251 246 215 219 168 163 159 151 155 164 164 173 166 144 160 74 187 193 201 211
231 215 206 207 208 214 222 223 221 222 220 221 216 220 232 242 239 227 209 219 229 235 232 240 244 241 241 232 226 225 214 204 197 195 198 209 185 197 195 169 214 209 213
238 226 207 211 213 215 221 226 228 225 222 225 227 227 235 246 249 238 217 231 237 237 239 240 243 244 252 251 244 237 233 230 223 224 223 219 227 240 261 207 167 227 243
238 230 224 216 217 220 222 226 226 227 228 228 235 244 245 247 256 240 221 232 242 248 240 241 239 241 238 238 233 228 230 233 227 231 231 232 239 250 269 233 225 233 256
250 242 228 228 224 224 225 226 228 229 230 231 235 239 243 251 248 257 249 240 242 241 236 240 240 236 229 216 204 199 204 204 225 228 237 240 246 250 254 239 233 239 250
265 252 244 233 231 232 230 229 229 231 233 235 235 237 240 243 248 255 256 248 242 235 237 236 232 221 203 194 193 199 208 210 232 231 234 241 249 251 248 249 245 245 248
266 264 254 248 239 235 236 233 231 233 231 232 232 234 235 243 248 252 261 258 242 234 233 231 230 211 200 202 205 209 212 219 246 250 247 251 255 261 255 252 250 250 249
267 258 259 253 247 241 240 237 234 233 233 231 227 231 236 241 247 252 259 263 254 244 239 232 225 216 213 213 217 220 228 234 245 247 252 261 264 266 264 261 258 258 260
296 273 266 261 253 245 240 238 238 238 237 235 231 230 232 237 244 250 255 257 253 248 246 240 229 221 220 218 223 227 240 246 253 258 263 267 271 274 275 273 265 263 262
298 291 276 275 269 255 245 242 238 238 237 238 235 231 228 235 241 245 248 252 247 242 238 237 233 230 228 230 234 236 243 248 259 263 269 271 272 273 274 274 275 265 261
283 289 290 278 273 272 261 251 247 243 241 240 243 233 230 233 240 246 247 249 249 245 239 237 230 231 230 229 232 236 243 251 259 265 269 271 273 272 274 273 274 275 271
293 300 286 282 275 272 268 258 254 253 249 248 247 246 241 238 240 250 248 247 248 245 241 238 234 234 233 234 235 238 243 248 255 259 265 268 268 267 266 270 275 276 270
256 262 282 278 278 271 267 266 258 255 256 255 254 251 250 248 246 248 251 253 249 245 243 239 238 236 235 235 236 237 240 246 253 258 262 263 263 264 265 265 266 265 245
281 251 232 254 277 267 264 265 264 257 253 257 261 262 258 252 252 248 256 253 250 245 243 238 236 233 233 234 236 236 238 243 249 255 260 265 271 271 270 268 262 249 208
287 268 243 228 243 273 268 266 264 260 255 254 257 262 256 256 256 254 257 258 257 252 246 242 240 237 235 236 238 240 241 243 246 251 257 263 267 270 269 261 249 228 220
295 274 253 244 224 239 256 261 262 262 259 258 257 253 249 248 248 246 259 264 261 257 250 248 246 242 240 236 235 237 239 243 245 248 253 257 259 263 262 259 251 242 237
27 350 278 255 232 216 235 249 246 248 250 254 254 253 248 245 246 248 256 261 260 257 254 252 250 247 244 240 238 237 239 240 242 245 248 251 255 259 258 256 249 243 236
57 60 68 145 232 245 243 242 240 244 243 246 246 250 251 250 252 253 254 255 259 257 257 256 253 249 244 237 236 237 238 240 241 244 244 247 251 255 253 253 248 243 239
58 58 59 61 67 87 176 236 256 240 243 249 245 253 253 259 261 260 258 257 260 261 258 253 252 250 244 239 234 236 241 244 245 244 245 244 246 249 251 250 247 243 243
58 56 55 54 53 57 59 36 284 256 238 240 242 244 254 255 262 268 266 263 260 258 260 260 256 251 247 242 239 233 228 236 246 244 245 244 243 246 247 247 247 246 245
57 56 55 55 55 53 48 45 47 42 42 344 277 263 270 265 254 261 264 263 261 260 260 261 262 258 253 245 243 239 235 250 232 240 243 244 244 244 244 244 244 243 244
54 46 43 42 46 47 45 46 46 46 36 342 295 304 298 280 267 267 260 255 257 256 261 260 260 257 256 253 250 248 244 241 247 249 252 248 243 244 242 240 241 240 246
40 32 26 23 25 29 31 34 37 40 36 23 3 331 317 307 296 275 263 275 259 252 256 260 262 261 260 258 257 254 252 247 242 245 250 252 254 255 250 244 241 241 244